| time (UTC) | temp F | wind direction | speed knots | gust knots | rain 1hr in | rain 24hr in | rain mn in | humidity % | barometer mb |
| 20260507155517 | 63 | 61 | 3.5 | 8.7 | 0.00 | 0.00 | 0.00 | 69 | 1020.0 |
| 20260507155021 | 62 | 5 | 3.5 | 10.4 | 0.00 | 0.00 | 0.00 | 70 | 1020.1 |
| 20260507154537 | 62 | 84 | 2.6 | 10.4 | 0.00 | 0.00 | 0.00 | 70 | 1020.0 |
| 20260507154022 | 62 | 29 | 4.3 | 9.6 | 0.00 | 0.00 | 0.00 | 70 | 1020.1 |
| 20260507153521 | 62 | 45 | 4.3 | 9.6 | 0.00 | 0.00 | 0.00 | 70 | 1019.9 |
| 20260507153043 | 62 | 30 | 2.6 | 7.8 | 0.00 | 0.00 | 0.00 | 72 | 1020.1 |
| 20260507152520 | 61 | 352 | 1.7 | 7.8 | 0.00 | 0.00 | 0.00 | 73 | 1020.0 |
| 20260507152023 | 61 | 45 | 1.7 | 8.7 | 0.00 | 0.00 | 0.00 | 74 | 1020.2 |
| 20260507151540 | 61 | 60 | 3.5 | 8.7 | 0.00 | 0.00 | 0.00 | 73 | 1020.1 |
| 20260507151020 | 61 | 30 | 2.6 | 7.0 | 0.00 | 0.00 | 0.00 | 74 | 1020.1 |
| 20260507150521 | 61 | 55 | 2.6 | 7.8 | 0.00 | 0.00 | 0.00 | 74 | 1020.2 |
| 20260507150041 | 60 | 81 | 2.6 | 7.8 | 0.00 | 0.00 | 0.00 | 75 | 1020.3 |
| 20260507145518 | 60 | 47 | 1.7 | 7.0 | 0.00 | 0.01 | 0.00 | 76 | 1020.4 |
| 20260507145018 | 59 | 82 | 2.6 | 7.0 | 0.00 | 0.01 | 0.00 | 77 | 1020.5 |
| 20260507144537 | 59 | 69 | 1.7 | 5.2 | 0.00 | 0.01 | 0.00 | 77 | 1020.5 |
| 20260507144022 | 59 | 24 | 2.6 | 6.1 | 0.00 | 0.01 | 0.00 | 76 | 1020.5 |
| 20260507143521 | 59 | 30 | 1.7 | 7.0 | 0.00 | 0.01 | 0.00 | 76 | 1020.5 |
| 20260507143037 | 59 | 46 | 2.6 | 8.7 | 0.00 | 0.01 | 0.00 | 76 | 1020.3 |
| 20260507142519 | 59 | 11 | 2.6 | 8.7 | 0.00 | 0.01 | 0.00 | 77 | 1020.4 |
| 20260507142021 | 58 | 70 | 3.5 | 9.6 | 0.00 | 0.01 | 0.00 | 78 | 1020.5 |
| 20260507141610 | 58 | 330 | 5.2 | 9.6 | 0.00 | 0.01 | 0.00 | 79 | 1020.5 |
| 20260507141019 | 58 | 30 | 2.6 | 5.2 | 0.00 | 0.01 | 0.00 | 80 | 1020.4 |
| 20260507140522 | 57 | 352 | 2.6 | 5.2 | 0.00 | 0.01 | 0.00 | 80 | 1020.4 |
| 20260507140042 | 57 | 46 | 1.7 | 4.3 | 0.00 | 0.01 | 0.00 | 81 | 1020.5 |
| 20260507135522 | 57 | 49 | 1.7 | 4.3 | 0.00 | 0.01 | 0.00 | 81 | 1020.6 |
| 20260507135022 | 57 | 0 | 0.0 | 3.5 | 0.00 | 0.01 | 0.00 | 82 | 1020.6 |
| 20260507134544 | 56 | 360 | 1.7 | 4.3 | 0.00 | 0.01 | 0.00 | 82 | 1020.6 |
| 20260507134020 | 56 | 360 | 1.7 | 4.3 | 0.00 | 0.01 | 0.00 | 82 | 1020.6 |
| 20260507133518 | 55 | 360 | 0.9 | 2.6 | 0.00 | 0.01 | 0.00 | 82 | 1020.8 |
| 20260507133038 | 55 | 360 | 0.0 | 1.7 | 0.00 | 0.01 | 0.00 | 82 | 1020.8 |
| 20260507132517 | 54 | 0 | 0.0 | 0.0 | 0.00 | 0.01 | 0.00 | 82 | 1020.8 |
| 20260507132018 | 53 | 0 | 0.0 | 0.0 | 0.00 | 0.01 | 0.00 | 82 | 1020.8 |
| 20260507131552 | 53 | 0 | 0.0 | 0.0 | 0.00 | 0.01 | 0.00 | 82 | 1020.7 |
| 20260507131018 | 53 | 0 | 0.0 | 0.0 | 0.00 | 0.01 | 0.00 | 82 | 1020.7 |
| 20260507130519 | 53 | 0 | 0.0 | 0.0 | 0.00 | 0.01 | 0.00 | 82 | 1020.7 |
| 20260507130037 | 53 | 0 | 0.0 | 0.0 | 0.00 | 0.01 | 0.00 | 82 | 1021.0 |
| 20260507125522 | 52 | 0 | 0.0 | 0.0 | 0.00 | 0.01 | 0.00 | 82 | 1020.9 |
| 20260507125022 | 52 | 0 | 0.0 | 0.0 | 0.00 | 0.01 | 0.00 | 82 | 1021.0 |
| 20260507124537 | 52 | 0 | 0.0 | 0.0 | 0.00 | 0.01 | 0.00 | 82 | 1021.0 |
| 20260507124020 | 52 | 0 | 0.0 | 1.7 | 0.00 | 0.01 | 0.00 | 82 | 1021.0 |
| 20260507123519 | 52 | 0 | 0.0 | 1.7 | 0.00 | 0.01 | 0.00 | 82 | 1020.7 |
| 20260507123036 | 51 | 0 | 0.0 | 3.5 | 0.00 | 0.01 | 0.00 | 82 | 1020.8 |
| 20260507122520 | 51 | 0 | 0.0 | 3.5 | 0.00 | 0.01 | 0.00 | 82 | 1020.8 |
| 20260507122018 | 51 | 0 | 0.0 | 3.5 | 0.00 | 0.01 | 0.00 | 82 | 1020.8 |
| 20260507121533 | 51 | 0 | 0.0 | 2.6 | 0.00 | 0.01 | 0.00 | 82 | 1020.7 |
| 20260507121019 | 51 | 0 | 0.0 | 2.6 | 0.00 | 0.01 | 0.00 | 82 | 1020.8 |
| 20260507120518 | 51 | 352 | 0.0 | 1.7 | 0.00 | 0.01 | 0.00 | 82 | 1020.8 |
| 20260507120042 | 50 | 0 | 0.0 | 2.6 | 0.00 | 0.01 | 0.00 | 82 | 1020.8 |
| 20260507115518 | 50 | 0 | 0.9 | 2.6 | 0.00 | 0.01 | 0.00 | 82 | 1020.7 |
| 20260507115017 | 50 | 0 | 0.0 | 0.9 | 0.00 | 0.01 | 0.00 | 83 | 1020.7 |
| 20260507114538 | 50 | 0 | 0.0 | 0.9 | 0.00 | 0.01 | 0.00 | 83 | 1020.8 |
| 20260507114019 | 50 | 0 | 0.0 | 0.0 | 0.00 | 0.01 | 0.00 | 83 | 1020.8 |
| 20260507113519 | 51 | 0 | 0.0 | 0.9 | 0.00 | 0.01 | 0.00 | 83 | 1020.8 |
| 20260507113037 | 51 | 0 | 0.0 | 0.9 | 0.00 | 0.01 | 0.00 | 82 | 1020.9 |
| 20260507112519 | 51 | 0 | 0.0 | 0.0 | 0.00 | 0.01 | 0.00 | 83 | 1020.8 |
| 20260507112021 | 51 | 0 | 0.0 | 0.9 | 0.00 | 0.01 | 0.00 | 83 | 1020.8 |
| 20260507111537 | 51 | 0 | 0.0 | 1.7 | 0.00 | 0.01 | 0.00 | 82 | 1020.8 |
| 20260507111021 | 51 | 0 | 0.0 | 2.6 | 0.00 | 0.01 | 0.00 | 82 | 1020.7 |
| 20260507110522 | 51 | 315 | 0.0 | 2.6 | 0.00 | 0.01 | 0.00 | 82 | 1020.6 |
| 20260507110037 | 52 | 0 | 0.9 | 2.6 | 0.00 | 0.01 | 0.00 | 82 | 1020.5 |
| 20260507105523 | 52 | 0 | 0.0 | 1.7 | 0.00 | 0.01 | 0.00 | 83 | 1020.5 |
| 20260507105018 | 52 | 0 | 0.0 | 2.6 | 0.00 | 0.01 | 0.00 | 82 | 1020.4 |
| 20260507104541 | 52 | 305 | 0.0 | 2.6 | 0.00 | 0.01 | 0.00 | 82 | 1020.4 |
| 20260507104021 | 52 | 306 | 0.0 | 2.6 | 0.00 | 0.01 | 0.00 | 82 | 1020.3 |
| 20260507103520 | 52 | 0 | 0.0 | 1.7 | 0.00 | 0.01 | 0.00 | 82 | 1020.1 |
| 20260507103040 | 52 | 0 | 0.0 | 2.6 | 0.00 | 0.01 | 0.00 | 82 | 1020.1 |
| 20260507102522 | 52 | 301 | 0.0 | 2.6 | 0.00 | 0.01 | 0.00 | 82 | 1020.0 |
| 20260507102019 | 52 | 295 | 0.0 | 1.7 | 0.00 | 0.01 | 0.00 | 82 | 1019.9 |
| 20260507101538 | 52 | 0 | 0.0 | 1.7 | 0.00 | 0.01 | 0.00 | 82 | 1019.8 |
| 20260507101019 | 53 | 0 | 0.0 | 1.7 | 0.00 | 0.01 | 0.00 | 82 | 1019.6 |
| 20260507100519 | 53 | 352 | 0.0 | 2.6 | 0.00 | 0.01 | 0.00 | 82 | 1019.4 |
| 20260507100040 | 53 | 323 | 0.0 | 2.6 | 0.00 | 0.01 | 0.00 | 82 | 1019.2 |
| 20260507095521 | 53 | 0 | 0.0 | 1.7 | 0.00 | 0.01 | 0.00 | 82 | 1019.2 |
| 20260507095018 | 53 | 0 | 0.0 | 4.3 | 0.00 | 0.01 | 0.00 | 82 | 1019.2 |
| 20260507094539 | 53 | 0 | 0.0 | 4.3 | 0.00 | 0.01 | 0.00 | 82 | 1019.1 |
| 20260507094019 | 53 | 313 | 0.9 | 3.5 | 0.00 | 0.01 | 0.00 | 82 | 1019.2 |
| 20260507093519 | 53 | 0 | 0.9 | 2.6 | 0.00 | 0.01 | 0.00 | 82 | 1019.1 |
| 20260507093037 | 54 | 0 | 0.0 | 2.6 | 0.00 | 0.01 | 0.00 | 82 | 1018.8 |
| 20260507092521 | 54 | 310 | 0.0 | 2.6 | 0.00 | 0.01 | 0.00 | 82 | 1018.5 |
| 20260507092018 | 54 | 0 | 0.0 | 2.6 | 0.00 | 0.01 | 0.00 | 82 | 1018.3 |
| 20260507091541 | 54 | 352 | 0.9 | 2.6 | 0.00 | 0.01 | 0.00 | 82 | 1018.1 |
| 20260507091021 | 54 | 9 | 0.0 | 2.6 | 0.00 | 0.01 | 0.00 | 82 | 1018.1 |
| 20260507090520 | 55 | 311 | 0.0 | 2.6 | 0.00 | 0.01 | 0.00 | 82 | 1018.0 |
| 20260507090039 | 55 | 0 | 0.0 | 2.6 | 0.00 | 0.01 | 0.00 | 82 | 1017.7 |
| 20260507085521 | 55 | 342 | 0.0 | 2.6 | 0.00 | 0.01 | 0.00 | 82 | 1017.8 |
| 20260507085021 | 55 | 0 | 0.0 | 2.6 | 0.00 | 0.01 | 0.00 | 82 | 1017.9 |
| 20260507084538 | 56 | 0 | 0.0 | 2.6 | 0.00 | 0.01 | 0.00 | 82 | 1018.0 |
| 20260507084020 | 56 | 360 | 0.0 | 2.6 | 0.00 | 0.01 | 0.00 | 82 | 1018.0 |
| 20260507083521 | 56 | 0 | 0.0 | 1.7 | 0.00 | 0.01 | 0.00 | 82 | 1018.0 |
| 20260507083040 | 56 | 0 | 0.0 | 0.0 | 0.00 | 0.01 | 0.00 | 82 | 1018.1 |
| 20260507082521 | 56 | 0 | 0.0 | 2.6 | 0.00 | 0.01 | 0.00 | 82 | 1018.1 |
| 20260507082020 | 56 | 0 | 0.0 | 2.6 | 0.00 | 0.01 | 0.00 | 82 | 1018.1 |
| 20260507081544 | 56 | 0 | 0.0 | 2.6 | 0.00 | 0.01 | 0.00 | 82 | 1018.1 |
| 20260507081021 | 56 | 349 | 0.0 | 2.6 | 0.00 | 0.01 | 0.00 | 82 | 1017.9 |
| 20260507080525 | 56 | 0 | 0.0 | 2.6 | 0.00 | 0.01 | 0.00 | 81 | 1018.0 |
| 20260507080036 | 56 | 0 | 0.0 | 1.7 | 0.00 | 0.01 | 0.00 | 81 | 1017.9 |
| 20260507075524 | 57 | 312 | 0.0 | 1.7 | 0.00 | 0.01 | 0.00 | 82 | 1017.9 |
| 20260507075021 | 57 | 350 | 0.0 | 2.6 | 0.00 | 0.01 | 0.00 | 82 | 1017.7 |
| 20260507074552 | 57 | 0 | 0.0 | 2.6 | 0.00 | 0.01 | 0.00 | 82 | 1017.7 |
| 20260507074020 | 57 | 0 | 0.0 | 3.5 | 0.00 | 0.01 | 0.00 | 82 | 1017.7 |
| 20260507073521 | 57 | 0 | 1.7 | 3.5 | 0.00 | 0.01 | 0.00 | 82 | 1017.6 |
| 20260507073039 | 57 | 9 | 0.9 | 3.5 | 0.00 | 0.01 | 0.00 | 82 | 1017.6 |
| 20260507072524 | 57 | 0 | 0.9 | 3.5 | 0.00 | 0.01 | 0.00 | 82 | 1017.5 |
| 20260507072020 | 57 | 0 | 0.9 | 3.5 | 0.00 | 0.01 | 0.00 | 82 | 1017.6 |
| 20260507071538 | 57 | 34 | 0.0 | 2.6 | 0.00 | 0.01 | 0.00 | 82 | 1017.6 |
| 20260507071021 | 57 | 0 | 0.0 | 4.3 | 0.00 | 0.01 | 0.00 | 82 | 1017.5 |
| 20260507070524 | 57 | 18 | 0.9 | 4.3 | 0.00 | 0.01 | 0.00 | 82 | 1017.5 |
| 20260507070040 | 57 | 360 | 1.7 | 3.5 | 0.00 | 0.01 | 0.00 | 82 | 1017.4 |
| 20260507065523 | 57 | 321 | 0.0 | 2.6 | 0.00 | 0.01 | 0.00 | 81 | 1017.4 |
| 20260507065020 | 57 | 320 | 0.0 | 2.6 | 0.00 | 0.01 | 0.00 | 81 | 1017.4 |
| 20260507064538 | 57 | 0 | 0.9 | 3.5 | 0.00 | 0.01 | 0.00 | 81 | 1017.4 |
| 20260507064021 | 57 | 28 | 0.9 | 3.5 | 0.00 | 0.01 | 0.00 | 81 | 1017.3 |
| 20260507063517 | 56 | 82 | 0.9 | 3.5 | 0.00 | 0.01 | 0.00 | 81 | 1017.4 |
| 20260507063037 | 56 | 0 | 0.9 | 3.5 | 0.00 | 0.01 | 0.00 | 81 | 1017.2 |
| 20260507062521 | 56 | 51 | 0.9 | 2.6 | 0.00 | 0.01 | 0.00 | 81 | 1017.0 |
| 20260507062021 | 56 | 36 | 0.9 | 2.6 | 0.00 | 0.01 | 0.00 | 81 | 1016.9 |
| 20260507061537 | 56 | 0 | 0.0 | 3.5 | 0.00 | 0.01 | 0.00 | 81 | 1017.0 |
| 20260507061022 | 56 | 94 | 0.9 | 3.5 | 0.00 | 0.01 | 0.00 | 81 | 1017.0 |
| 20260507060521 | 56 | 87 | 0.9 | 2.6 | 0.00 | 0.01 | 0.00 | 81 | 1017.0 |
| 20260507060038 | 56 | 76 | 0.9 | 3.5 | 0.00 | 0.01 | 0.00 | 81 | 1017.1 |
| 20260507055520 | 56 | 44 | 0.9 | 3.5 | 0.00 | 0.01 | 0.00 | 81 | 1017.2 |
| 20260507055018 | 56 | 34 | 0.9 | 2.6 | 0.00 | 0.01 | 0.00 | 81 | 1017.1 |
| 20260507054533 | 56 | 48 | 0.0 | 2.6 | 0.00 | 0.01 | 0.00 | 81 | 1017.1 |
| 20260507054020 | 56 | 35 | 0.0 | 2.6 | 0.00 | 0.01 | 0.00 | 81 | 1017.1 |
| 20260507053521 | 56 | 29 | 0.0 | 1.7 | 0.00 | 0.01 | 0.00 | 81 | 1017.1 |
| 20260507053039 | 56 | 0 | 0.0 | 2.6 | 0.00 | 0.01 | 0.00 | 81 | 1017.1 |
| 20260507052521 | 56 | 0 | 0.0 | 2.6 | 0.00 | 0.01 | 0.00 | 81 | 1017.1 |
| 20260507052022 | 56 | 0 | 0.0 | 1.7 | 0.00 | 0.01 | 0.00 | 82 | 1017.0 |
| 20260507051539 | 56 | 0 | 0.0 | 1.7 | 0.00 | 0.01 | 0.00 | 82 | 1017.1 |
| 20260507051022 | 56 | 0 | 0.0 | 0.0 | 0.00 | 0.01 | 0.00 | 82 | 1017.0 |
| 20260507050520 | 56 | 0 | 0.0 | 0.0 | 0.00 | 0.01 | 0.00 | 82 | 1017.0 |
| 20260507050038 | 56 | 0 | 0.0 | 0.9 | 0.00 | 0.01 | 0.00 | 82 | 1017.1 |
| 20260507045521 | 56 | 0 | 0.0 | 0.9 | 0.00 | 0.01 | 0.01 | 82 | 1017.1 |
| 20260507045022 | 56 | 0 | 0.0 | 0.9 | 0.00 | 0.01 | 0.01 | 82 | 1017.1 |
| 20260507044544 | 56 | 0 | 0.0 | 2.6 | 0.00 | 0.01 | 0.01 | 82 | 1017.2 |
| 20260507044021 | 56 | 94 | 0.9 | 4.3 | 0.00 | 0.01 | 0.01 | 82 | 1017.1 |
| 20260507043521 | 56 | 65 | 0.9 | 4.3 | 0.00 | 0.01 | 0.01 | 82 | 1017.1 |
| 20260507043039 | 56 | 86 | 0.9 | 4.3 | 0.00 | 0.01 | 0.01 | 82 | 1017.1 |
| 20260507042521 | 56 | 0 | 0.0 | 0.0 | 0.00 | 0.01 | 0.01 | 82 | 1017.1 |
| 20260507042020 | 56 | 0 | 0.0 | 0.0 | 0.00 | 0.01 | 0.01 | 82 | 1017.1 |
| 20260507041541 | 56 | 0 | 0.0 | 0.0 | 0.00 | 0.01 | 0.01 | 82 | 1017.2 |
| 20260507041021 | 56 | 0 | 0.0 | 0.0 | 0.00 | 0.01 | 0.01 | 82 | 1017.3 |
| 20260507040520 | 56 | 0 | 0.0 | 0.0 | 0.00 | 0.01 | 0.01 | 82 | 1017.3 |
| 20260507040038 | 56 | 0 | 0.0 | 0.0 | 0.00 | 0.01 | 0.01 | 82 | 1017.3 |
| 20260507035519 | 56 | 0 | 0.0 | 0.0 | 0.00 | 0.01 | 0.01 | 82 | 1017.3 |
| 20260507035022 | 56 | 0 | 0.0 | 0.0 | 0.00 | 0.01 | 0.01 | 82 | 1017.2 |
| 20260507034537 | 56 | 0 | 0.0 | 0.0 | 0.00 | 0.01 | 0.01 | 82 | 1017.2 |
| 20260507034021 | 56 | 0 | 0.0 | 0.0 | 0.00 | 0.01 | 0.01 | 82 | 1017.3 |
| 20260507033521 | 56 | 0 | 0.0 | 0.0 | 0.00 | 0.01 | 0.01 | 82 | 1017.2 |
| 20260507033039 | 56 | 0 | 0.0 | 0.0 | 0.00 | 0.01 | 0.01 | 82 | 1017.2 |
| 20260507032520 | 56 | 0 | 0.0 | 0.0 | 0.00 | 0.01 | 0.01 | 82 | 1017.2 |
| 20260507032023 | 57 | 0 | 0.0 | 0.0 | 0.00 | 0.01 | 0.01 | 82 | 1017.1 |
| 20260507031551 | 57 | 0 | 0.0 | 0.0 | 0.00 | 0.01 | 0.01 | 82 | 1017.1 |
| 20260507031022 | 57 | 0 | 0.0 | 0.0 | 0.00 | 0.01 | 0.01 | 81 | 1017.1 |
| 20260507030518 | 57 | 0 | 0.0 | 0.0 | 0.00 | 0.01 | 0.01 | 81 | 1017.2 |
| 20260507030049 | 57 | 0 | 0.0 | 0.0 | 0.00 | 0.01 | 0.01 | 82 | 1017.0 |
| 20260507025519 | 57 | 0 | 0.0 | 0.0 | 0.00 | 0.01 | 0.01 | 81 | 1017.1 |
| 20260507025018 | 58 | 0 | 0.0 | 1.7 | 0.00 | 0.01 | 0.01 | 81 | 1017.0 |
| 20260507024542 | 58 | 0 | 0.0 | 2.6 | 0.00 | 0.01 | 0.01 | 81 | 1016.8 |
| 20260507024025 | 58 | 0 | 0.0 | 2.6 | 0.00 | 0.01 | 0.01 | 81 | 1016.8 |
| 20260507023522 | 58 | 0 | 0.0 | 0.0 | 0.00 | 0.01 | 0.01 | 81 | 1016.6 |
| 20260507023037 | 58 | 0 | 0.0 | 0.0 | 0.00 | 0.01 | 0.01 | 81 | 1016.6 |
| 20260507022521 | 58 | 0 | 0.0 | 0.0 | 0.00 | 0.01 | 0.01 | 81 | 1016.5 |
| 20260507022022 | 58 | 0 | 0.0 | 0.0 | 0.00 | 0.01 | 0.01 | 81 | 1016.4 |
| 20260507021536 | 58 | 0 | 0.0 | 0.0 | 0.00 | 0.01 | 0.01 | 80 | 1016.2 |
| 20260507021021 | 59 | 0 | 0.0 | 0.0 | 0.00 | 0.01 | 0.01 | 80 | 1016.1 |
| 20260507020518 | 59 | 0 | 0.0 | 0.0 | 0.00 | 0.01 | 0.01 | 80 | 1016.1 |
| 20260507020040 | 59 | 0 | 0.0 | 0.0 | 0.00 | 0.01 | 0.01 | 79 | 1015.9 |
| 20260507015522 | 59 | 0 | 0.0 | 0.0 | 0.00 | 0.01 | 0.01 | 79 | 1015.8 |
| 20260507015018 | 60 | 0 | 0.0 | 0.0 | 0.00 | 0.01 | 0.01 | 79 | 1015.6 |
| 20260507014547 | 60 | 0 | 0.0 | 0.0 | 0.00 | 0.01 | 0.01 | 79 | 1015.5 |
| 20260507014022 | 60 | 0 | 0.0 | 0.0 | 0.00 | 0.01 | 0.01 | 78 | 1015.4 |
| 20260507013520 | 60 | 0 | 0.0 | 0.0 | 0.00 | 0.01 | 0.01 | 78 | 1015.3 |
| 20260507013037 | 61 | 0 | 0.0 | 0.0 | 0.00 | 0.01 | 0.01 | 78 | 1015.2 |
| 20260507012521 | 61 | 0 | 0.0 | 0.0 | 0.00 | 0.01 | 0.01 | 77 | 1015.1 |
| 20260507012024 | 61 | 0 | 0.0 | 0.0 | 0.00 | 0.01 | 0.01 | 77 | 1015.0 |
| 20260507011538 | 61 | 0 | 0.0 | 0.0 | 0.00 | 0.01 | 0.01 | 77 | 1014.9 |
| 20260507011018 | 62 | 0 | 0.0 | 0.9 | 0.00 | 0.01 | 0.01 | 77 | 1014.7 |
| 20260507010521 | 62 | 0 | 0.0 | 0.9 | 0.00 | 0.01 | 0.01 | 76 | 1014.6 |
| 20260507010041 | 62 | 0 | 0.0 | 0.9 | 0.00 | 0.01 | 0.01 | 76 | 1014.5 |
| 20260507005519 | 62 | 38 | 0.0 | 0.9 | 0.00 | 0.01 | 0.01 | 76 | 1014.5 |
| 20260507005020 | 62 | 38 | 0.0 | 2.6 | 0.00 | 0.01 | 0.01 | 76 | 1014.5 |
| 20260507004535 | 62 | 0 | 0.0 | 2.6 | 0.00 | 0.01 | 0.01 | 76 | 1014.4 |
| 20260507004023 | 62 | 36 | 0.9 | 3.5 | 0.00 | 0.01 | 0.01 | 75 | 1014.3 |
| 20260507003519 | 62 | 40 | 0.9 | 5.2 | 0.00 | 0.01 | 0.01 | 75 | 1014.4 |
| 20260507003039 | 62 | 49 | 0.9 | 5.2 | 0.00 | 0.01 | 0.01 | 74 | 1014.4 |
| 20260507002518 | 62 | 111 | 1.7 | 5.2 | 0.00 | 0.01 | 0.01 | 74 | 1014.4 |
| 20260507002021 | 62 | 42 | 0.9 | 3.5 | 0.00 | 0.01 | 0.01 | 74 | 1014.5 |
| 20260507001540 | 62 | 360 | 0.9 | 3.5 | 0.00 | 0.01 | 0.01 | 75 | 1014.5 |
| 20260507001020 | 62 | 53 | 0.9 | 3.5 | 0.00 | 0.01 | 0.01 | 75 | 1014.4 |
| 20260507000522 | 62 | 0 | 0.9 | 4.3 | 0.00 | 0.01 | 0.01 | 74 | 1014.5 |
| 20260507000041 | 62 | 0 | 1.7 | 5.2 | 0.00 | 0.01 | 0.01 | 74 | 1014.6 |
| 20260506235520 | 62 | 46 | 1.7 | 5.2 | 0.00 | 0.01 | 0.01 | 73 | 1014.5 |
| 20260506235019 | 62 | 15 | 1.7 | 3.5 | 0.00 | 0.01 | 0.01 | 74 | 1014.5 |
| 20260506234537 | 62 | 49 | 1.7 | 5.2 | 0.00 | 0.01 | 0.01 | 74 | 1014.4 |
| 20260506234019 | 62 | 40 | 2.6 | 5.2 | 0.00 | 0.01 | 0.01 | 74 | 1014.4 |
| 20260506233519 | 62 | 32 | 0.9 | 4.3 | 0.00 | 0.01 | 0.01 | 74 | 1014.3 |
| 20260506233042 | 62 | 15 | 0.9 | 5.2 | 0.00 | 0.01 | 0.01 | 74 | 1014.3 |
| 20260506232518 | 62 | 32 | 1.7 | 7.8 | 0.00 | 0.01 | 0.01 | 74 | 1014.4 |
| 20260506232019 | 62 | 48 | 3.5 | 9.6 | 0.00 | 0.01 | 0.01 | 74 | 1014.3 |
| 20260506231534 | 62 | 87 | 2.6 | 9.6 | 0.00 | 0.01 | 0.01 | 74 | 1014.2 |
| 20260506231018 | 62 | 53 | 3.5 | 7.0 | 0.00 | 0.01 | 0.01 | 74 | 1013.9 |
| 20260506230518 | 62 | 74 | 2.6 | 7.0 | 0.00 | 0.01 | 0.01 | 74 | 1014.1 |
| 20260506230038 | 63 | 352 | 1.7 | 7.0 | 0.00 | 0.01 | 0.01 | 73 | 1014.0 |
| 20260506225522 | 63 | 34 | 0.9 | 7.0 | 0.00 | 0.01 | 0.01 | 73 | 1014.0 |
| 20260506225022 | 63 | 36 | 2.6 | 7.0 | 0.00 | 0.01 | 0.01 | 73 | 1014.1 |
| 20260506224538 | 62 | 0 | 1.7 | 8.7 | 0.00 | 0.01 | 0.01 | 74 | 1013.9 |
| 20260506224020 | 62 | 360 | 1.7 | 8.7 | 0.00 | 0.01 | 0.01 | 73 | 1013.9 |
| 20260506223519 | 62 | 360 | 2.6 | 8.7 | 0.00 | 0.01 | 0.01 | 74 | 1013.8 |
| 20260506223037 | 62 | 0 | 0.9 | 5.2 | 0.00 | 0.01 | 0.01 | 74 | 1013.9 |
| 20260506222522 | 62 | 360 | 0.9 | 5.2 | 0.00 | 0.01 | 0.01 | 74 | 1013.9 |
| 20260506222023 | 62 | 360 | 0.0 | 5.2 | 0.00 | 0.01 | 0.01 | 74 | 1013.8 |
| 20260506221537 | 62 | 360 | 1.7 | 5.2 | 0.00 | 0.01 | 0.01 | 73 | 1013.7 |
| 20260506221026 | 62 | 360 | 1.7 | 5.2 | 0.00 | 0.01 | 0.01 | 73 | 1013.9 |
| 20260506220521 | 62 | 360 | 0.9 | 3.5 | 0.00 | 0.01 | 0.01 | 73 | 1013.9 |
| 20260506220036 | 62 | 0 | 0.0 | 4.3 | 0.00 | 0.01 | 0.01 | 74 | 1014.1 |
| 20260506215525 | 61 | 0 | 0.9 | 4.3 | 0.00 | 0.01 | 0.01 | 74 | 1013.9 |
| 20260506215023 | 61 | 360 | 1.7 | 5.2 | 0.00 | 0.01 | 0.01 | 73 | 1013.9 |
| 20260506214537 | 62 | 360 | 2.6 | 5.2 | 0.00 | 0.01 | 0.01 | 72 | 1014.0 |
| 20260506214018 | 62 | 360 | 0.0 | 4.3 | 0.00 | 0.01 | 0.01 | 73 | 1014.2 |
| 20260506213518 | 62 | 360 | 0.9 | 5.2 | 0.00 | 0.01 | 0.01 | 74 | 1014.1 |
| 20260506213038 | 61 | 360 | 0.9 | 5.2 | 0.00 | 0.01 | 0.01 | 74 | 1014.3 |
| 20260506212521 | 62 | 53 | 2.6 | 5.2 | 0.00 | 0.01 | 0.01 | 72 | 1014.2 |
| 20260506212018 | 62 | 0 | 0.9 | 7.8 | 0.00 | 0.01 | 0.01 | 73 | 1014.3 |
| 20260506211538 | 62 | 340 | 1.7 | 7.8 | 0.00 | 0.01 | 0.01 | 73 | 1014.0 |
| 20260506211022 | 62 | 45 | 1.7 | 4.3 | 0.00 | 0.01 | 0.01 | 72 | 1014.1 |
| 20260506210522 | 62 | 5 | 0.0 | 5.2 | 0.00 | 0.01 | 0.01 | 73 | 1014.1 |
| 20260506210038 | 62 | 34 | 1.7 | 5.2 | 0.00 | 0.01 | 0.01 | 73 | 1014.3 |
| 20260506205524 | 62 | 302 | 0.9 | 4.3 | 0.00 | 0.01 | 0.01 | 73 | 1014.2 |
| 20260506205021 | 62 | 279 | 0.9 | 8.7 | 0.00 | 0.01 | 0.01 | 73 | 1014.2 |
| 20260506204543 | 61 | 46 | 1.7 | 8.7 | 0.00 | 0.01 | 0.01 | 73 | 1014.1 |
| 20260506204021 | 61 | 311 | 1.7 | 9.6 | 0.00 | 0.01 | 0.01 | 73 | 1014.2 |
| 20260506203521 | 61 | 360 | 3.5 | 9.6 | 0.00 | 0.01 | 0.01 | 74 | 1014.2 |
| 20260506203037 | 61 | 19 | 1.7 | 6.1 | 0.00 | 0.01 | 0.01 | 75 | 1014.1 |
| 20260506202523 | 60 | 297 | 0.9 | 7.8 | 0.00 | 0.01 | 0.01 | 75 | 1014.4 |
| 20260506202020 | 60 | 360 | 1.7 | 7.8 | 0.00 | 0.01 | 0.01 | 75 | 1014.5 |
| 20260506201537 | 60 | 329 | 2.6 | 6.1 | 0.00 | 0.01 | 0.01 | 75 | 1014.8 |
| 20260506201021 | 60 | 314 | 2.6 | 8.7 | 0.00 | 0.01 | 0.01 | 75 | 1014.6 |
| 20260506200522 | 59 | 360 | 2.6 | 8.7 | 0.00 | 0.01 | 0.01 | 75 | 1014.6 |
| 20260506200039 | 60 | 56 | 1.7 | 7.0 | 0.00 | 0.01 | 0.01 | 75 | 1014.8 |
| 20260506195518 | 59 | 29 | 3.5 | 8.7 | 0.00 | 0.01 | 0.01 | 75 | 1015.0 |
| 20260506195018 | 59 | 5 | 2.6 | 8.7 | 0.00 | 0.01 | 0.01 | 76 | 1015.0 |
| 20260506194538 | 59 | 55 | 1.7 | 7.0 | 0.00 | 0.01 | 0.01 | 76 | 1014.7 |
| 20260506194021 | 59 | 360 | 0.9 | 10.4 | 0.00 | 0.01 | 0.01 | 78 | 1014.9 |
| 20260506193518 | 58 | 360 | 1.7 | 10.4 | 0.00 | 0.01 | 0.01 | 78 | 1014.9 |
| 20260506193037 | 58 | 360 | 2.6 | 7.8 | 0.00 | 0.01 | 0.01 | 78 | 1015.1 |
| 20260506192526 | 58 | 360 | 2.6 | 7.0 | 0.00 | 0.01 | 0.01 | 78 | 1015.1 |
| 20260506192022 | 57 | 0 | 1.7 | 7.0 | 0.00 | 0.01 | 0.01 | 79 | 1015.3 |
| 20260506191537 | 57 | 360 | 1.7 | 7.0 | 0.00 | 0.01 | 0.01 | 79 | 1015.1 |
| 20260506191021 | 57 | 360 | 0.9 | 7.0 | 0.00 | 0.01 | 0.01 | 80 | 1015.2 |
| 20260506190519 | 56 | 360 | 2.6 | 7.0 | 0.00 | 0.01 | 0.01 | 80 | 1015.2 |
| 20260506190037 | 56 | 360 | 0.9 | 5.2 | 0.00 | 0.01 | 0.01 | 81 | 1015.4 |
| 20260506185518 | 55 | 360 | 1.7 | 7.0 | 0.00 | 0.01 | 0.01 | 81 | 1015.4 |
| 20260506185019 | 55 | 9 | 1.7 | 7.0 | 0.00 | 0.01 | 0.01 | 81 | 1015.5 |
| 20260506184537 | 55 | 360 | 1.7 | 5.2 | 0.00 | 0.01 | 0.01 | 81 | 1015.6 |
| 20260506184018 | 55 | 331 | 1.7 | 5.2 | 0.00 | 0.01 | 0.01 | 81 | 1015.7 |
| 20260506183518 | 55 | 0 | 0.0 | 6.1 | 0.00 | 0.01 | 0.01 | 81 | 1015.9 |
| 20260506183039 | 55 | 360 | 1.7 | 6.1 | 0.00 | 0.01 | 0.01 | 81 | 1016.1 |
| 20260506182521 | 55 | 352 | 0.9 | 4.3 | 0.00 | 0.01 | 0.01 | 81 | 1015.9 |
| 20260506182022 | 55 | 342 | 0.9 | 7.0 | 0.00 | 0.01 | 0.01 | 81 | 1015.9 |
| 20260506181538 | 55 | 41 | 2.6 | 7.0 | 0.00 | 0.01 | 0.01 | 81 | 1016.0 |
| 20260506181022 | 55 | 5 | 2.6 | 5.2 | 0.00 | 0.01 | 0.01 | 81 | 1015.8 |
| 20260506180522 | 55 | 323 | 1.7 | 7.0 | 0.00 | 0.01 | 0.01 | 81 | 1016.1 |
| 20260506180046 | 55 | 0 | 0.9 | 7.0 | 0.00 | 0.01 | 0.01 | 81 | 1016.1 |
| 20260506175522 | 55 | 313 | 1.7 | 7.0 | 0.00 | 0.01 | 0.01 | 81 | 1016.0 |
| 20260506175023 | 55 | 326 | 1.7 | 6.1 | 0.00 | 0.01 | 0.01 | 81 | 1015.8 |
| 20260506174541 | 55 | 352 | 0.9 | 8.7 | 0.00 | 0.01 | 0.01 | 81 | 1015.6 |
| 20260506174021 | 55 | 352 | 0.9 | 8.7 | 0.00 | 0.01 | 0.01 | 82 | 1015.5 |
| 20260506173519 | 54 | 317 | 2.6 | 8.7 | 0.00 | 0.01 | 0.01 | 82 | 1014.9 |
| 20260506173039 | 54 | 0 | 1.7 | 12.2 | 0.00 | 0.01 | 0.01 | 82 | 1014.6 |
| 20260506172520 | 54 | 26 | 2.6 | 12.2 | 0.00 | 0.01 | 0.01 | 81 | 1014.6 |
| 20260506172021 | 54 | 67 | 2.6 | 8.7 | 0.00 | 0.01 | 0.01 | 81 | 1014.6 |
| 20260506171540 | 54 | 24 | 2.6 | 8.7 | 0.00 | 0.01 | 0.01 | 82 | 1014.4 |
| 20260506171018 | 54 | 350 | 2.6 | 8.7 | 0.00 | 0.01 | 0.01 | 82 | 1014.7 |
| 20260506170518 | 55 | 23 | 1.7 | 7.0 | 0.00 | 0.01 | 0.01 | 82 | 1014.6 |
| 20260506170050 | 54 | 314 | 0.9 | 7.8 | 0.00 | 0.01 | 0.01 | 82 | 1014.6 |
| 20260506165522 | 54 | 26 | 2.6 | 7.8 | 0.00 | 0.01 | 0.01 | 82 | 1014.9 |
| 20260506165018 | 54 | 19 | 2.6 | 7.8 | 0.00 | 0.01 | 0.01 | 82 | 1015.0 |
| 20260506164538 | 54 | 0 | 2.6 | 7.8 | 0.00 | 0.01 | 0.01 | 82 | 1015.2 |
| 20260506164022 | 54 | 360 | 0.9 | 6.1 | 0.00 | 0.01 | 0.01 | 82 | 1015.0 |
| 20260506163519 | 54 | 309 | 0.9 | 7.0 | 0.00 | 0.01 | 0.01 | 82 | 1014.9 |
| 20260506163056 | 54 | 15 | 1.7 | 7.0 | 0.00 | 0.01 | 0.01 | 82 | 1015.0 |
| 20260506162525 | 54 | 329 | 0.9 | 7.0 | 0.00 | 0.01 | 0.01 | 82 | 1015.0 |
| 20260506162024 | 54 | 30 | 0.9 | 8.7 | 0.00 | 0.01 | 0.01 | 82 | 1015.2 |
| 20260506161537 | 54 | 16 | 0.9 | 8.7 | 0.00 | 0.01 | 0.01 | 82 | 1015.3 |
| 20260506161021 | 54 | 360 | 1.7 | 8.7 | 0.00 | 0.01 | 0.01 | 82 | 1015.2 |
| 20260506160522 | 54 | 53 | 1.7 | 7.8 | 0.00 | 0.01 | 0.01 | 82 | 1015.3 |
| 20260506160036 | 54 | 9 | 0.9 | 7.8 | 0.00 | 0.01 | 0.01 | 82 | 1015.1 |